Time,TemperatureF,DewpointF,PressureIn,WindDirection,WindDirectionDegrees,WindSpeedMPH,WindSpeedGustMPH,Humidity,HourlyPrecipIn,Conditions,Clouds,dailyrainin,SolarRadiationWatts/m^2,SoftwareType,DateUTC
2013-06-12 00:01:00,74.6,72.1,29.79,NW,325,0.0,0.0,92,0.00,FEW,,0.00,0.0,WeatherDisplay:10.37,2013-06-12 05:01:00,
2013-06-12 00:06:00,74.8,72.3,29.79,NW,325,0.0,0.0,92,0.00,FEW,,0.00,0.0,WeatherDisplay:10.37,2013-06-12 05:06:00,
2013-06-12 00:12:00,74.9,72.4,29.79,NW,325,0.0,2.0,92,0.00,FEW,FEW,0.00,0.0,WeatherDisplay:10.37,2013-06-12 05:12:00,
2013-06-12 00:17:00,75.0,72.2,29.79,NW,325,0.0,0.0,91,0.00,FEW,FEW,0.00,0.0,WeatherDisplay:10.37,2013-06-12 05:17:00,
2013-06-12 00:22:00,75.1,72.3,29.79,NW,325,0.0,0.0,91,0.00,FEW,,0.00,0.0,WeatherDisplay:10.37,2013-06-12 05:22:00,
2013-06-12 00:27:00,75.2,72.1,29.79,NW,325,0.0,0.0,90,0.00,FEW,,0.00,0.0,WeatherDisplay:10.37,2013-06-12 05:27:00,
2013-06-12 00:32:00,75.3,72.2,29.79,NW,325,0.0,0.0,90,0.00,FEW,,0.00,0.0,WeatherDisplay:10.37,2013-06-12 05:32:00,
2013-06-12 00:38:00,75.4,71.9,29.78,NW,325,0.0,0.0,89,0.00,FEW,,0.00,0.0,WeatherDisplay:10.37,2013-06-12 05:38:00,
2013-06-12 00:43:00,75.4,71.9,29.78,NW,325,0.0,0.0,89,0.00,FEW,,0.00,0.0,WeatherDisplay:10.37,2013-06-12 05:43:00,
2013-06-12 00:48:00,75.3,71.5,29.78,NW,325,0.0,0.0,88,0.00,FEW,,0.00,0.0,WeatherDisplay:10.37,2013-06-12 05:48:00,
2013-06-12 00:53:00,75.3,71.5,29.78,NW,325,0.0,0.0,88,0.00,FEW,,0.00,0.0,WeatherDisplay:10.37,2013-06-12 05:53:00,
2013-06-12 00:59:00,75.3,71.5,29.78,NW,325,0.0,0.0,88,0.00,FEW,,0.00,0.0,WeatherDisplay:10.37,2013-06-12 05:59:00,
2013-06-12 01:04:00,75.3,71.2,29.78,NW,325,0.0,0.0,87,0.00,BKN,,0.00,0.0,WeatherDisplay:10.37,2013-06-12 06:04:00,
2013-06-12 01:09:00,75.3,71.2,29.77,NW,325,0.0,1.2,87,0.00,BKN,,0.00,0.0,WeatherDisplay:10.37,2013-06-12 06:09:00,
2013-06-12 01:14:00,75.3,70.8,29.77,SE,144,0.0,0.0,86,0.00,BKN,,0.00,0.0,WeatherDisplay:10.37,2013-06-12 06:14:00,
2013-06-12 01:20:00,75.3,70.8,29.77,ESE,114,0.5,1.0,86,0.00,BKN,,0.00,0.0,WeatherDisplay:10.37,2013-06-12 06:20:00,
2013-06-12 01:25:00,75.3,70.5,29.76,ESE,114,0.0,0.0,85,0.00,BKN,,0.00,0.0,WeatherDisplay:10.37,2013-06-12 06:25:00,
2013-06-12 01:30:00,75.2,70.4,29.76,ESE,114,0.0,0.0,85,0.00,BKN,,0.00,0.0,WeatherDisplay:10.37,2013-06-12 06:30:00,
2013-06-12 01:35:00,75.2,70.4,29.76,SE,128,0.1,1.0,85,0.00,BKN,,0.00,0.0,WeatherDisplay:10.37,2013-06-12 06:35:00,
2013-06-12 01:41:00,75.1,70.3,29.76,SE,128,0.0,0.0,85,0.00,BKN,,0.00,0.0,WeatherDisplay:10.37,2013-06-12 06:41:00,
2013-06-12 01:46:00,75.1,69.9,29.77,ESE,117,0.0,0.0,84,0.00,BKN,,0.00,0.0,WeatherDisplay:10.37,2013-06-12 06:46:00,
2013-06-12 01:51:00,75.1,69.9,29.77,ESE,117,0.0,0.0,84,0.00,BKN,,0.00,0.0,WeatherDisplay:10.37,2013-06-12 06:51:00,
2013-06-12 01:56:00,75.2,70.0,29.76,ESE,117,0.0,0.0,84,0.00,BKN,,0.00,0.0,WeatherDisplay:10.37,2013-06-12 06:56:00,
2013-06-12 02:02:00,75.1,69.9,29.77,ESE,117,0.0,0.0,84,0.00,BKN,,0.00,0.0,WeatherDisplay:10.37,2013-06-12 07:02:00,
2013-06-12 02:07:00,75.1,69.9,29.77,ESE,117,0.0,3.0,84,0.00,BKN,BKN,0.00,0.0,WeatherDisplay:10.37,2013-06-12 07:07:00,
2013-06-12 02:12:00,75.0,69.8,29.77,East,91,0.0,1.0,84,0.00,BKN,BKN,0.00,0.0,WeatherDisplay:10.37,2013-06-12 07:12:00,
2013-06-12 02:17:00,74.9,70.1,29.77,ENE,59,0.0,0.0,85,0.00,BKN,,0.00,0.0,WeatherDisplay:10.37,2013-06-12 07:17:00,
2013-06-12 02:22:00,74.8,70.0,29.77,ENE,59,0.0,0.0,85,0.00,BKN,,0.00,0.0,WeatherDisplay:10.37,2013-06-12 07:22:00,
2013-06-12 02:27:00,74.8,70.0,29.77,ENE,59,0.0,0.0,85,0.00,BKN,,0.00,0.0,WeatherDisplay:10.37,2013-06-12 07:27:00,
2013-06-12 02:32:00,74.7,69.9,29.77,SSE,155,0.0,0.0,85,0.00,BKN,,0.00,0.0,WeatherDisplay:10.37,2013-06-12 07:32:00,
2013-06-12 02:38:00,74.6,69.8,29.77,SSE,155,0.0,0.0,85,0.00,BKN,,0.00,0.0,WeatherDisplay:10.37,2013-06-12 07:38:00,
2013-06-12 02:43:00,74.4,69.6,29.76,SSE,155,0.0,0.0,85,0.00,BKN,,0.00,0.0,WeatherDisplay:10.37,2013-06-12 07:43:00,
2013-06-12 02:48:00,74.2,69.7,29.76,SSE,155,0.0,0.0,86,0.00,BKN,,0.00,0.0,WeatherDisplay:10.37,2013-06-12 07:48:00,
2013-06-12 02:53:00,74.1,70.0,29.75,ENE,65,0.5,3.5,87,0.00,BKN,,0.00,0.0,WeatherDisplay:10.37,2013-06-12 07:53:00,
2013-06-12 02:59:00,74.0,69.9,29.75,SE,130,0.8,3.5,87,0.00,BKN,,0.00,0.0,WeatherDisplay:10.37,2013-06-12 07:59:00,
2013-06-12 03:04:00,74.0,69.9,29.75,SE,130,0.0,0.0,87,0.00,FEW,,0.00,0.0,WeatherDisplay:10.37,2013-06-12 08:04:00,
2013-06-12 03:09:00,74.0,69.5,29.74,SE,130,0.0,0.0,86,0.00,FEW,,0.00,0.0,WeatherDisplay:10.37,2013-06-12 08:09:00,
2013-06-12 03:15:00,73.9,69.4,29.75,SE,130,0.0,0.0,86,0.00,FEW,,0.00,0.0,WeatherDisplay:10.37,2013-06-12 08:15:00,
2013-06-12 03:20:00,73.9,69.4,29.74,SE,130,0.0,0.0,86,0.00,FEW,,0.00,0.0,WeatherDisplay:10.37,2013-06-12 08:20:00,
2013-06-12 03:25:00,73.8,69.3,29.75,SE,130,0.0,0.0,86,0.00,FEW,,0.00,0.0,WeatherDisplay:10.37,2013-06-12 08:25:00,
2013-06-12 03:30:00,73.8,69.3,29.74,SE,130,0.0,0.0,86,0.00,FEW,,0.00,0.0,WeatherDisplay:10.37,2013-06-12 08:30:00,
2013-06-12 03:36:00,73.7,68.9,29.75,SE,130,0.0,0.0,85,0.00,FEW,,0.00,0.0,WeatherDisplay:10.37,2013-06-12 08:36:00,
2013-06-12 03:41:00,73.7,68.9,29.75,SE,130,0.0,0.0,85,0.00,FEW,,0.00,0.0,WeatherDisplay:10.37,2013-06-12 08:41:00,
2013-06-12 03:46:00,73.7,68.9,29.75,SE,130,0.0,0.0,85,0.00,FEW,,0.00,0.0,WeatherDisplay:10.37,2013-06-12 08:46:00,
2013-06-12 03:51:00,73.7,68.9,29.76,SE,130,0.0,0.0,85,0.00,FEW,,0.00,0.0,WeatherDisplay:10.37,2013-06-12 08:51:00,
2013-06-12 03:57:00,73.6,68.8,29.77,SE,130,0.0,0.0,85,0.00,FEW,,0.00,0.0,WeatherDisplay:10.37,2013-06-12 08:57:00,
2013-06-12 04:02:00,73.5,68.7,29.77,SE,130,0.0,0.0,85,0.00,OVC,OVC,0.00,0.0,WeatherDisplay:10.37,2013-06-12 09:02:00,
2013-06-12 04:07:00,73.4,69.0,29.76,SE,130,0.0,0.0,86,0.00,OVC,,0.00,0.0,WeatherDisplay:10.37,2013-06-12 09:07:00,
2013-06-12 04:12:00,73.4,69.0,29.76,SE,130,0.0,0.0,86,0.00,OVC,,0.00,0.0,WeatherDisplay:10.37,2013-06-12 09:12:00,
2013-06-12 04:17:00,73.4,69.0,29.77,SE,130,0.0,0.0,86,0.00,OVC,,0.00,0.0,WeatherDisplay:10.37,2013-06-12 09:17:00,
2013-06-12 04:22:00,73.3,68.9,29.78,SE,130,0.0,0.0,86,0.00,OVC,,0.00,0.0,WeatherDisplay:10.37,2013-06-12 09:22:00,
2013-06-12 04:28:00,73.3,68.9,29.78,SE,130,0.0,0.0,86,0.00,OVC,,0.00,0.0,WeatherDisplay:10.37,2013-06-12 09:28:00,
2013-06-12 04:33:00,73.2,68.8,29.78,SE,130,0.0,0.0,86,0.00,OVC,,0.00,0.0,WeatherDisplay:10.37,2013-06-12 09:33:00,
2013-06-12 04:38:00,73.2,69.1,29.78,SE,130,0.0,0.0,87,0.00,OVC,,0.00,0.0,WeatherDisplay:10.37,2013-06-12 09:38:00,
2013-06-12 04:43:00,73.1,69.0,29.78,SE,130,0.0,0.0,87,0.00,OVC,,0.00,0.0,WeatherDisplay:10.37,2013-06-12 09:43:00,
2013-06-12 04:49:00,73.0,68.9,29.78,SE,130,0.0,0.0,87,0.00,OVC,,0.00,0.0,WeatherDisplay:10.37,2013-06-12 09:49:00,
2013-06-12 04:54:00,72.9,68.8,29.79,SE,130,0.0,0.0,87,0.00,OVC,,0.00,0.0,WeatherDisplay:10.37,2013-06-12 09:54:00,
2013-06-12 04:59:00,72.9,69.1,29.79,SE,130,0.0,0.0,88,0.00,OVC,,0.00,0.0,WeatherDisplay:10.37,2013-06-12 09:59:00,
2013-06-12 05:04:00,72.8,69.0,29.80,SE,130,0.0,0.0,88,0.00,OVC,,0.00,0.0,WeatherDisplay:10.37,2013-06-12 10:04:00,
2013-06-12 05:10:00,72.8,69.0,29.80,SE,130,0.0,0.0,88,0.00,OVC,,0.00,0.0,WeatherDisplay:10.37,2013-06-12 10:10:00,
2013-06-12 05:15:00,72.8,69.7,29.79,SE,129,0.0,0.0,90,0.11,RA,,0.11,0.0,WeatherDisplay:10.37,2013-06-12 10:15:00,
2013-06-12 05:20:00,72.4,69.6,29.78,SE,129,0.0,0.0,91,0.13,RA,,0.13,0.0,WeatherDisplay:10.37,2013-06-12 10:20:00,
2013-06-12 05:25:00,72.0,69.5,29.79,SE,129,0.0,0.0,92,0.13,OVC,,0.13,0.0,WeatherDisplay:10.37,2013-06-12 10:25:00,
2013-06-12 05:31:00,71.8,69.3,29.79,SE,129,0.0,0.0,92,0.14,RA,,0.14,0.0,WeatherDisplay:10.37,2013-06-12 10:31:00,
2013-06-12 05:36:00,71.6,69.5,29.78,SE,129,0.0,0.0,93,0.16,RA,,0.16,0.0,WeatherDisplay:10.37,2013-06-12 10:36:00,
2013-06-12 05:41:00,71.5,69.7,29.78,SE,129,0.0,0.0,94,0.17,RA,,0.17,0.0,WeatherDisplay:10.37,2013-06-12 10:41:00,
2013-06-12 05:46:00,71.4,69.6,29.80,SE,129,0.0,0.0,94,0.17,OVC,,0.17,0.0,WeatherDisplay:10.37,2013-06-12 10:46:00,
2013-06-12 05:52:00,71.3,69.5,29.78,SE,129,0.0,1.0,94,0.00,OVC,OVC,0.17,0.0,WeatherDisplay:10.37,2013-06-12 10:52:00,
2013-06-12 05:57:00,71.2,69.4,29.77,SE,129,0.0,0.0,94,0.00,OVC,OVC,0.17,0.0,WeatherDisplay:10.37,2013-06-12 10:57:00,
2013-06-12 06:02:00,71.2,69.4,29.77,SE,129,0.0,1.0,94,0.00,OVC,OVC,0.17,0.0,WeatherDisplay:10.37,2013-06-12 11:02:00,
2013-06-12 06:07:00,71.1,69.6,29.76,SE,129,0.2,1.2,95,0.17,OVC,,0.17,0.0,WeatherDisplay:10.37,2013-06-12 11:07:00,
2013-06-12 06:12:00,71.1,69.6,29.76,SE,130,0.0,0.0,95,0.12,OVC,,0.17,0.0,WeatherDisplay:10.37,2013-06-12 11:12:00,
2013-06-12 06:17:00,71.0,69.5,29.77,SE,130,0.0,0.0,95,0.05,OVC,,0.17,9.8,WeatherDisplay:10.37,2013-06-12 11:17:00,
2013-06-12 06:23:00,71.1,69.6,29.77,SE,130,0.0,0.0,95,0.04,OVC,,0.17,12.6,WeatherDisplay:10.37,2013-06-12 11:23:00,
2013-06-12 06:28:00,71.1,69.6,29.78,SE,129,0.0,0.0,95,0.04,OVC,,0.17,12.6,WeatherDisplay:10.37,2013-06-12 11:28:00,
2013-06-12 06:33:00,71.0,69.5,29.78,SE,129,0.1,0.0,95,0.03,OVC,,0.17,15.4,WeatherDisplay:10.37,2013-06-12 11:33:00,
2013-06-12 06:38:00,71.0,69.5,29.77,SE,129,0.0,0.0,95,0.01,OVC,,0.17,12.6,WeatherDisplay:10.37,2013-06-12 11:38:00,
2013-06-12 06:44:00,71.0,69.5,29.78,SE,129,0.0,0.0,95,0.00,OVC,,0.17,15.4,WeatherDisplay:10.37,2013-06-12 11:44:00,
2013-06-12 06:49:00,71.0,69.5,29.77,NNE,15,0.2,2.3,95,0.00,OVC,,0.17,15.4,WeatherDisplay:10.37,2013-06-12 11:49:00,
2013-06-12 06:54:00,71.1,69.6,29.74,NNE,15,0.0,0.0,95,0.00,OVC,,0.17,19.6,WeatherDisplay:10.37,2013-06-12 11:54:00,
2013-06-12 06:59:00,71.0,69.5,29.66,SSE,158,1.5,3.5,95,0.00,OVC,,0.17,19.6,WeatherDisplay:10.37,2013-06-12 11:59:00,
2013-06-12 07:05:00,71.0,69.8,29.62,SE,136,3.3,10.4,96,0.00,-RA,,0.17,25.2,WeatherDisplay:10.37,2013-06-12 12:05:00,
2013-06-12 07:10:00,71.2,69.7,29.62,East,86,1.6,8.1,95,0.00,-RA,,0.17,36.4,WeatherDisplay:10.37,2013-06-12 12:10:00,
2013-06-12 07:15:00,71.3,69.8,29.67,ESE,121,2.2,6.9,95,0.00,-RA,,0.17,51.8,WeatherDisplay:10.37,2013-06-12 12:15:00,
2013-06-12 07:20:00,71.4,69.9,29.70,WNW,295,0.1,2.3,95,0.00,-RA,,0.17,65.8,WeatherDisplay:10.37,2013-06-12 12:20:00,
2013-06-12 07:26:00,71.5,70.0,29.70,SSW,207,1.4,3.5,95,0.00,-RA,,0.17,75.6,WeatherDisplay:10.37,2013-06-12 12:26:00,
2013-06-12 07:31:00,71.7,70.2,29.71,South,184,0.0,0.0,95,0.00,-RA,,0.17,84.0,WeatherDisplay:10.37,2013-06-12 12:31:00,
2013-06-12 07:36:00,71.8,70.3,29.73,South,184,0.0,1.2,95,0.00,-RA,,0.17,86.8,WeatherDisplay:10.37,2013-06-12 12:36:00,
2013-06-12 07:41:00,71.9,70.4,29.73,South,189,0.2,2.3,95,0.00,-RA,,0.17,91.0,WeatherDisplay:10.37,2013-06-12 12:41:00,
2013-06-12 07:47:00,71.9,70.4,29.73,SSE,156,0.0,0.0,95,0.00,-RA,,0.17,100.8,WeatherDisplay:10.37,2013-06-12 12:47:00,
2013-06-12 07:52:00,72.0,70.5,29.72,SSE,156,0.0,0.0,95,0.00,-RA,-RA,0.17,116.2,WeatherDisplay:10.37,2013-06-12 12:52:00,
2013-06-12 07:57:00,72.1,70.6,29.73,SSE,156,0.0,1.0,95,0.00,-RA,-RA,0.17,145.6,WeatherDisplay:10.37,2013-06-12 12:57:00,
2013-06-12 08:02:00,72.2,70.7,29.74,SSE,157,0.0,0.0,95,0.00,OVC,,0.17,187.6,WeatherDisplay:10.37,2013-06-12 13:02:00,
2013-06-12 08:07:00,72.5,71.3,29.74,SSE,157,0.0,0.0,96,0.00,OVC,,0.17,207.2,WeatherDisplay:10.37,2013-06-12 13:07:00,
2013-06-12 08:12:00,72.7,71.2,29.73,SSE,163,0.0,0.0,95,0.00,OVC,,0.17,201.6,WeatherDisplay:10.37,2013-06-12 13:12:00,
2013-06-12 08:17:00,72.8,71.3,29.73,SE,136,0.0,2.0,95,0.00,OVC,,0.17,117.6,WeatherDisplay:10.37,2013-06-12 13:17:00,
2013-06-12 08:23:00,73.0,71.5,29.73,SSE,163,0.0,0.0,95,0.00,OVC,,0.17,142.8,WeatherDisplay:10.37,2013-06-12 13:23:00,
2013-06-12 08:28:00,73.0,71.5,29.72,SSE,163,0.0,0.0,95,0.00,OVC,,0.17,126.0,WeatherDisplay:10.37,2013-06-12 13:28:00,
2013-06-12 08:33:00,73.2,71.7,29.72,SSE,163,0.0,0.0,95,0.00,OVC,,0.17,86.8,WeatherDisplay:10.37,2013-06-12 13:33:00,
2013-06-12 08:37:00,75.7,73.5,29.70,NNE,13,0.0,3.0,93,0.00,RA,RA,0.17,168.0,WeatherDisplay:10.37,2013-06-12 13:37:00,
2013-06-12 08:38:00,73.3,71.5,29.74,SW,215,0.6,3.5,94,0.00,OVC,,0.17,98.0,WeatherDisplay:10.37,2013-06-12 13:38:00,
2013-06-12 08:42:00,76.2,74.0,29.70,NNE,26,0.0,5.0,93,0.00,BKN,BKN,0.17,142.8,WeatherDisplay:10.37,2013-06-12 13:42:00,
2013-06-12 08:44:00,73.3,71.5,29.73,SW,215,0.0,0.0,94,0.00,OVC,,0.17,126.0,WeatherDisplay:10.37,2013-06-12 13:44:00,
2013-06-12 08:47:00,76.6,74.4,29.69,SSE,150,2.0,7.0,93,0.00,BKN,BKN,0.17,137.2,WeatherDisplay:10.37,2013-06-12 13:47:00,
2013-06-12 08:49:00,73.3,71.5,29.72,SW,215,0.0,0.0,94,0.00,OVC,,0.17,155.4,WeatherDisplay:10.37,2013-06-12 13:49:00,
2013-06-12 08:52:00,77.1,74.9,29.68,South,176,2.0,7.0,93,0.00,BKN,BKN,0.17,137.2,WeatherDisplay:10.37,2013-06-12 13:52:00,
2013-06-12 08:54:00,73.5,71.7,29.72,South,177,0.0,0.0,94,0.00,OVC,,0.17,165.2,WeatherDisplay:10.37,2013-06-12 13:54:00,
2013-06-12 08:57:00,77.6,75.4,29.68,South,178,2.0,8.0,93,0.00,BKN,BKN,0.17,152.6,WeatherDisplay:10.37,2013-06-12 13:57:00,
2013-06-12 08:59:00,73.4,71.6,29.72,South,177,0.0,1.2,94,0.00,OVC,,0.17,158.2,WeatherDisplay:10.37,2013-06-12 13:59:00,
2013-06-12 09:02:00,78.2,76.0,29.68,SSE,167,1.0,5.0,93,0.00,BKN,BKN,0.17,149.8,WeatherDisplay:10.37,2013-06-12 14:02:00,
2013-06-12 09:05:00,73.7,71.9,29.71,SSE,159,0.1,1.2,94,0.00,BKN,,0.17,162.4,WeatherDisplay:10.37,2013-06-12 14:05:00,
2013-06-12 09:07:00,78.7,76.5,29.67,SSE,158,0.0,3.0,93,0.00,BKN,BKN,0.17,152.6,WeatherDisplay:10.37,2013-06-12 14:07:00,
2013-06-12 09:10:00,73.9,72.1,29.71,WSW,257,0.0,0.0,94,0.00,BKN,,0.17,198.8,WeatherDisplay:10.37,2013-06-12 14:10:00,
2013-06-12 09:15:00,74.2,72.4,29.71,South,184,0.0,0.0,94,0.00,BKN,,0.17,152.6,WeatherDisplay:10.37,2013-06-12 14:15:00,
2013-06-12 09:20:00,74.4,72.2,29.70,SSE,166,0.0,0.0,93,0.00,BKN,,0.17,177.8,WeatherDisplay:10.37,2013-06-12 14:20:00,
2013-06-12 09:26:00,74.8,72.6,29.70,SSE,151,0.0,0.0,93,0.00,BKN,,0.17,177.8,WeatherDisplay:10.37,2013-06-12 14:26:00,
2013-06-12 09:31:00,75.2,73.0,29.70,SSE,151,0.0,0.0,93,0.00,BKN,,0.17,204.4,WeatherDisplay:10.37,2013-06-12 14:31:00,
2013-06-12 10:10:00,78.9,74.0,29.67,SSW,200,1.5,3.5,85,0.00,BKN,,0.17,168.0,WeatherDisplay:10.37,2013-06-12 15:10:00,
2013-06-12 10:16:00,79.3,74.4,29.67,SE,126,0.0,2.3,85,0.00,BKN,,0.17,957.6,WeatherDisplay:10.37,2013-06-12 15:16:00,
2013-06-12 10:21:00,79.7,74.4,29.68,SSE,165,3.3,10.4,84,0.00,BKN,,0.17,910.0,WeatherDisplay:10.37,2013-06-12 15:21:00,
2013-06-12 10:26:00,80.1,74.1,29.68,SSE,161,2.3,11.5,82,0.00,BKN,,0.17,218.4,WeatherDisplay:10.37,2013-06-12 15:26:00,
2013-06-12 10:31:00,80.3,74.3,29.68,SSE,157,0.0,1.2,82,0.00,BKN,,0.17,851.2,WeatherDisplay:10.37,2013-06-12 15:31:00,
2013-06-12 10:37:00,80.6,74.6,29.68,SE,146,0.0,5.0,82,0.00,BKN,BKN,0.17,1041.6,WeatherDisplay:10.37,2013-06-12 15:37:00,
2013-06-12 10:42:00,81.1,75.4,29.68,SE,136,0.0,3.0,83,0.00,BKN,BKN,0.17,1094.8,WeatherDisplay:10.37,2013-06-12 15:42:00,
2013-06-12 10:47:00,81.8,75.3,29.68,ESE,107,0.0,4.0,81,0.00,BKN,BKN,0.17,1103.2,WeatherDisplay:10.37,2013-06-12 15:47:00,
2013-06-12 10:52:00,82.4,75.6,29.67,SSW,205,0.3,2.0,80,0.00,BKN,,0.17,1100.4,WeatherDisplay:10.37,2013-06-12 15:52:00,
2013-06-12 10:57:00,82.8,75.2,29.67,West,265,0.4,2.3,78,0.00,BKN,,0.17,1110.2,WeatherDisplay:10.37,2013-06-12 15:57:00,
2013-06-12 11:02:00,83.1,75.9,29.67,NNW,346,0.2,2.3,79,0.00,FEW,,0.17,1090.6,WeatherDisplay:10.37,2013-06-12 16:02:00,
2013-06-12 11:08:00,83.4,75.8,29.68,ESE,108,1.4,8.0,78,0.00,FEW,,0.17,1103.2,WeatherDisplay:10.37,2013-06-12 16:08:00,
2013-06-12 11:13:00,83.4,75.4,29.68,West,267,1.3,3.5,77,0.00,FEW,,0.17,364.0,WeatherDisplay:10.37,2013-06-12 16:13:00,
2013-06-12 11:18:00,83.3,75.3,29.68,ENE,74,0.0,1.2,77,0.00,FEW,,0.17,961.8,WeatherDisplay:10.37,2013-06-12 16:18:00,
2013-06-12 11:23:00,83.4,76.2,29.68,East,92,0.5,2.0,79,0.00,FEW,,0.17,497.0,WeatherDisplay:10.37,2013-06-12 16:23:00,
2013-06-12 11:29:00,83.6,75.2,29.68,SSE,157,0.0,4.6,76,0.00,FEW,,0.17,1087.8,WeatherDisplay:10.37,2013-06-12 16:29:00,
2013-06-12 11:34:00,83.8,75.8,29.68,ESE,116,0.6,3.5,77,0.00,FEW,,0.17,357.0,WeatherDisplay:10.37,2013-06-12 16:34:00,
2013-06-12 11:39:00,83.9,75.1,29.68,East,79,2.3,6.0,75,0.00,FEW,,0.17,1188.6,WeatherDisplay:10.37,2013-06-12 16:39:00,
2013-06-12 11:44:00,84.2,75.4,29.69,South,175,0.6,5.8,75,0.00,FEW,,0.17,1149.4,WeatherDisplay:10.37,2013-06-12 16:44:00,
2013-06-12 11:50:00,84.5,75.7,29.69,NNE,20,0.1,2.0,75,0.00,FEW,,0.17,1269.8,WeatherDisplay:10.37,2013-06-12 16:50:00,
2013-06-12 11:55:00,84.9,75.7,29.69,South,173,1.7,5.8,74,0.00,FEW,,0.17,1380.4,WeatherDisplay:10.37,2013-06-12 16:55:00,
2013-06-12 12:00:00,85.6,75.5,29.69,NNE,19,0.3,2.3,72,0.00,SCT,,0.17,1533.0,WeatherDisplay:10.37,2013-06-12 17:00:00,
2013-06-12 12:05:00,86.1,75.6,29.69,West,259,0.7,3.5,71,0.00,SCT,,0.17,484.4,WeatherDisplay:10.37,2013-06-12 17:05:00,
2013-06-12 12:11:00,85.7,75.6,29.69,SSE,148,0.0,3.5,72,0.00,SCT,,0.17,490.0,WeatherDisplay:10.37,2013-06-12 17:11:00,
2013-06-12 12:16:00,85.6,75.5,29.69,SE,136,0.7,5.0,72,0.00,SCT,,0.17,536.2,WeatherDisplay:10.37,2013-06-12 17:16:00,
2013-06-12 12:21:00,85.3,74.8,29.69,East,91,0.0,0.0,71,0.00,SCT,,0.17,431.2,WeatherDisplay:10.37,2013-06-12 17:21:00,
2013-06-12 12:26:00,85.3,74.8,29.69,SSW,213,0.0,0.0,71,0.00,SCT,,0.17,445.2,WeatherDisplay:10.37,2013-06-12 17:26:00,
2013-06-12 12:32:00,85.8,74.9,29.69,SE,126,0.0,3.5,70,0.00,SCT,,0.17,1425.2,WeatherDisplay:10.37,2013-06-12 17:32:00,
2013-06-12 12:37:00,86.5,75.1,29.68,South,179,0.0,4.0,69,0.00,SCT,SCT,0.17,1464.4,WeatherDisplay:10.37,2013-06-12 17:37:00,
2013-06-12 12:42:00,87.5,75.7,29.68,NNW,330,0.0,4.0,68,0.00,SCT,SCT,0.17,389.2,WeatherDisplay:10.37,2013-06-12 17:42:00,
2013-06-12 12:47:00,87.3,75.4,29.69,SSW,200,0.6,2.3,68,0.00,SCT,,0.17,401.8,WeatherDisplay:10.37,2013-06-12 17:47:00,
2013-06-12 12:52:00,86.6,75.3,29.69,West,279,1.0,6.0,69,0.00,SCT,SCT,0.17,396.2,WeatherDisplay:10.37,2013-06-12 17:52:00,
2013-06-12 12:57:00,86.8,73.6,29.68,WNW,289,0.0,6.0,65,0.00,SCT,SCT,0.17,399.0,WeatherDisplay:10.37,2013-06-12 17:57:00,
2013-06-12 13:02:00,86.8,74.5,29.69,West,263,2.6,10.4,67,0.00,SCT,,0.17,1624.0,WeatherDisplay:10.37,2013-06-12 18:02:00,
2013-06-12 13:07:00,87.2,74.0,29.69,NW,325,5.8,10.4,65,0.00,SCT,,0.17,347.2,WeatherDisplay:10.37,2013-06-12 18:07:00,
2013-06-12 13:12:00,86.7,74.0,29.69,WSW,242,1.0,8.1,66,0.00,SCT,,0.17,383.6,WeatherDisplay:10.37,2013-06-12 18:12:00,
2013-06-12 13:17:00,87.6,76.2,29.68,WNW,295,0.1,3.5,69,0.00,SCT,,0.17,432.6,WeatherDisplay:10.37,2013-06-12 18:17:00,
2013-06-12 13:23:00,87.2,74.9,29.69,WNW,286,0.4,2.3,67,0.00,SCT,,0.17,723.8,WeatherDisplay:10.37,2013-06-12 18:23:00,
2013-06-12 13:28:00,87.2,75.8,29.69,WNW,286,0.0,0.0,69,0.00,SCT,,0.17,1405.6,WeatherDisplay:10.37,2013-06-12 18:28:00,
2013-06-12 13:33:00,87.7,74.5,29.68,ESE,111,0.1,1.2,65,0.00,SCT,,0.17,1397.2,WeatherDisplay:10.37,2013-06-12 18:33:00,
2013-06-12 13:38:00,88.3,76.4,29.68,WSW,252,0.5,8.1,68,0.00,SCT,,0.17,1390.2,WeatherDisplay:10.37,2013-06-12 18:38:00,
2013-06-12 13:44:00,88.8,77.3,29.68,WNW,302,0.0,1.2,69,0.00,SCT,,0.17,1348.2,WeatherDisplay:10.37,2013-06-12 18:44:00,
2013-06-12 13:49:00,88.6,75.3,29.68,NNW,348,0.1,2.3,65,0.00,SCT,,0.17,1360.8,WeatherDisplay:10.37,2013-06-12 18:49:00,
2013-06-12 13:54:00,88.6,75.8,29.68,WNW,292,1.0,3.5,66,0.00,SCT,,0.17,1383.2,WeatherDisplay:10.37,2013-06-12 18:54:00,
2013-06-12 13:59:00,89.0,76.2,29.69,ENE,76,0.2,1.0,66,0.00,SCT,,0.17,1407.0,WeatherDisplay:10.37,2013-06-12 18:59:00,
2013-06-12 14:05:00,88.9,75.1,29.68,NW,317,2.2,5.8,64,0.00,FEW,,0.17,1432.2,WeatherDisplay:10.37,2013-06-12 19:05:00,
2013-06-12 14:10:00,89.3,74.1,29.68,WNW,292,0.3,2.3,61,0.00,FEW,,0.17,373.8,WeatherDisplay:10.37,2013-06-12 19:10:00,
2013-06-12 14:15:00,88.8,74.6,29.68,NNW,338,1.9,3.0,63,0.00,FEW,,0.17,1705.2,WeatherDisplay:10.37,2013-06-12 19:15:00,
2013-06-12 14:21:00,89.1,78.5,29.68,WNW,300,0.3,2.3,71,0.00,FEW,,0.17,1425.2,WeatherDisplay:10.37,2013-06-12 19:21:00,
2013-06-12 14:26:00,89.0,75.2,29.69,West,272,0.4,2.3,64,0.00,FEW,,0.17,770.0,WeatherDisplay:10.37,2013-06-12 19:26:00,
2013-06-12 14:31:00,88.9,76.5,29.69,WSW,257,0.3,2.0,67,0.00,FEW,,0.17,401.8,WeatherDisplay:10.37,2013-06-12 19:31:00,
2013-06-12 14:36:00,88.4,76.0,29.69,WSW,250,0.0,0.0,67,0.00,FEW,,0.17,935.2,WeatherDisplay:10.37,2013-06-12 19:36:00,
2013-06-12 14:42:00,89.1,75.8,29.69,SSE,167,0.6,3.5,65,0.00,FEW,,0.17,1437.8,WeatherDisplay:10.37,2013-06-12 19:42:00,
2013-06-12 14:47:00,89.6,74.9,29.68,West,263,3.0,8.0,62,0.00,FEW,FEW,0.17,1282.4,WeatherDisplay:10.37,2013-06-12 19:47:00,
2013-06-12 14:52:00,90.0,77.1,29.69,WNW,288,0.0,0.0,66,0.00,FEW,,0.17,1328.6,WeatherDisplay:10.37,2013-06-12 19:52:00,
2013-06-12 14:57:00,90.4,76.1,29.68,WNW,296,1.9,3.5,63,0.00,FEW,,0.17,1316.0,WeatherDisplay:10.37,2013-06-12 19:57:00,
2013-06-12 15:03:00,90.3,76.0,29.67,SE,125,0.0,0.0,63,0.00,FEW,,0.17,1390.2,WeatherDisplay:10.37,2013-06-12 20:03:00,
2013-06-12 15:08:00,90.4,75.6,29.67,NW,313,1.8,4.6,62,0.00,FEW,,0.17,386.4,WeatherDisplay:10.37,2013-06-12 20:08:00,
2013-06-12 15:13:00,89.8,75.0,29.68,NW,313,0.9,2.3,62,0.00,FEW,,0.17,369.6,WeatherDisplay:10.37,2013-06-12 20:13:00,
2013-06-12 15:18:00,89.6,75.3,29.68,WNW,292,0.3,2.0,63,0.00,FEW,,0.17,502.6,WeatherDisplay:10.37,2013-06-12 20:18:00,
2013-06-12 15:24:00,89.8,75.5,29.68,South,180,0.2,3.5,63,0.00,FEW,,0.17,233.8,WeatherDisplay:10.37,2013-06-12 20:24:00,
2013-06-12 15:29:00,89.2,74.5,29.67,West,279,0.1,2.3,62,0.00,FEW,,0.17,221.2,WeatherDisplay:10.37,2013-06-12 20:29:00,
2013-06-12 15:34:00,88.3,75.9,29.67,WNW,301,1.6,4.6,67,0.00,FEW,,0.17,340.2,WeatherDisplay:10.37,2013-06-12 20:34:00,
2013-06-12 15:39:00,89.5,74.8,29.68,South,175,3.1,8.1,62,0.00,FEW,,0.17,1188.6,WeatherDisplay:10.37,2013-06-12 20:39:00,
2013-06-12 15:45:00,89.7,76.4,29.67,NW,315,0.1,3.5,65,0.00,FEW,,0.17,1143.8,WeatherDisplay:10.37,2013-06-12 20:45:00,
2013-06-12 15:50:00,90.4,75.6,29.67,NNW,330,1.6,5.8,62,0.00,FEW,,0.17,1134.0,WeatherDisplay:10.37,2013-06-12 20:50:00,
2013-06-12 15:55:00,90.4,76.1,29.67,NW,311,0.1,1.2,63,0.00,FEW,,0.17,1149.4,WeatherDisplay:10.37,2013-06-12 20:55:00,
2013-06-12 16:00:00,90.9,75.1,29.67,North,5,0.9,5.0,60,0.00,FEW,,0.17,1114.4,WeatherDisplay:10.37,2013-06-12 21:00:00,
2013-06-12 16:06:00,90.5,73.7,29.67,West,273,7.1,9.2,58,0.00,FEW,,0.17,1149.4,WeatherDisplay:10.37,2013-06-12 21:06:00,
2013-06-12 16:11:00,90.2,74.4,29.67,SSE,161,0.6,3.5,60,0.00,FEW,,0.17,970.2,WeatherDisplay:10.37,2013-06-12 21:11:00,
2013-06-12 16:16:00,89.6,73.9,29.67,West,272,3.1,8.0,60,0.00,FEW,,0.17,182.0,WeatherDisplay:10.37,2013-06-12 21:16:00,
2013-06-12 16:21:00,88.8,73.1,29.67,WSW,252,0.0,3.5,60,0.00,FEW,,0.17,1013.6,WeatherDisplay:10.37,2013-06-12 21:21:00,
2013-06-12 16:27:00,88.6,74.4,29.67,West,277,2.9,6.9,63,0.00,FEW,,0.17,445.2,WeatherDisplay:10.37,2013-06-12 21:27:00,
2013-06-12 16:32:00,88.7,74.5,29.67,West,275,1.0,14.0,63,0.00,FEW,FEW,0.17,347.2,WeatherDisplay:10.37,2013-06-12 21:32:00,
2013-06-12 16:37:00,88.1,74.4,29.68,NNW,327,5.4,13.8,64,0.00,FEW,,0.17,991.2,WeatherDisplay:10.37,2013-06-12 21:37:00,
2013-06-12 16:42:00,87.4,74.2,29.68,WSW,253,2.6,8.1,65,0.00,FEW,,0.17,249.2,WeatherDisplay:10.37,2013-06-12 21:42:00,
2013-06-12 16:47:00,87.1,74.4,29.68,WNW,300,1.7,6.9,66,0.00,FEW,,0.17,974.4,WeatherDisplay:10.37,2013-06-12 21:47:00,
2013-06-12 16:53:00,87.4,72.8,29.68,WNW,299,3.5,15.0,62,0.00,FEW,,0.17,918.4,WeatherDisplay:10.37,2013-06-12 21:53:00,
2013-06-12 16:58:00,87.8,73.2,29.67,NW,317,1.4,6.0,62,0.00,FEW,,0.17,866.6,WeatherDisplay:10.37,2013-06-12 21:58:00,
2013-06-12 17:03:00,87.7,72.6,29.67,NW,314,3.3,9.2,61,0.00,SCT,,0.17,448.0,WeatherDisplay:10.37,2013-06-12 22:03:00,
2013-06-12 17:08:00,87.7,72.6,29.67,South,190,1.1,5.8,61,0.00,SCT,,0.17,263.2,WeatherDisplay:10.37,2013-06-12 22:08:00,
2013-06-12 17:14:00,87.4,71.8,29.67,SW,236,4.1,11.0,60,0.00,SCT,,0.17,145.6,WeatherDisplay:10.37,2013-06-12 22:14:00,
2013-06-12 17:19:00,86.9,71.3,29.67,WNW,288,3.8,11.5,60,0.00,SCT,,0.17,201.6,WeatherDisplay:10.37,2013-06-12 22:19:00,
2013-06-12 17:24:00,86.7,71.2,29.67,West,263,1.9,11.5,60,0.00,SCT,,0.17,159.6,WeatherDisplay:10.37,2013-06-12 22:24:00,
2013-06-12 17:29:00,86.6,72.5,29.68,NNW,346,1.6,4.0,63,0.00,SCT,,0.17,149.8,WeatherDisplay:10.37,2013-06-12 22:29:00,
2013-06-12 17:35:00,86.1,71.6,29.68,NNW,329,5.0,10.4,62,0.00,SCT,,0.17,226.8,WeatherDisplay:10.37,2013-06-12 22:35:00,
2013-06-12 17:40:00,85.7,72.1,29.68,ESE,117,5.7,10.4,64,0.00,SCT,,0.17,204.4,WeatherDisplay:10.37,2013-06-12 22:40:00,
2013-06-12 17:45:00,85.5,71.5,29.68,SW,215,2.5,7.0,63,0.00,SCT,,0.17,168.0,WeatherDisplay:10.37,2013-06-12 22:45:00,
2013-06-12 17:50:00,85.2,71.6,29.69,West,269,2.1,6.0,64,0.00,SCT,,0.17,201.6,WeatherDisplay:10.37,2013-06-12 22:50:00,
2013-06-12 17:56:00,84.8,70.8,29.69,WNW,296,3.4,11.5,63,0.00,SCT,,0.17,159.6,WeatherDisplay:10.37,2013-06-12 22:56:00,
2013-06-12 18:01:00,84.2,70.7,29.69,SW,214,5.3,9.2,64,0.00,FEW,,0.17,133.0,WeatherDisplay:10.37,2013-06-12 23:01:00,
2013-06-12 18:06:00,83.7,70.7,29.69,WNW,286,4.6,9.2,65,0.00,FEW,,0.17,175.0,WeatherDisplay:10.37,2013-06-12 23:06:00,
2013-06-12 18:11:00,83.4,70.8,29.69,WSW,255,0.9,3.5,66,0.00,FEW,,0.17,149.8,WeatherDisplay:10.37,2013-06-12 23:11:00,
2013-06-12 18:17:00,83.1,70.1,29.69,West,271,5.3,9.0,65,0.00,FEW,,0.17,155.4,WeatherDisplay:10.37,2013-06-12 23:17:00,
2013-06-12 18:22:00,82.9,70.8,29.70,West,274,2.0,13.0,67,0.00,FEW,FEW,0.17,127.4,WeatherDisplay:10.37,2013-06-12 23:22:00,
2013-06-12 18:27:00,82.5,70.4,29.70,WNW,286,5.0,12.0,67,0.00,FEW,FEW,0.17,116.2,WeatherDisplay:10.37,2013-06-12 23:27:00,
2013-06-12 18:32:00,82.0,70.4,29.71,West,271,6.0,20.0,68,0.00,FEW,FEW,0.17,117.6,WeatherDisplay:10.37,2013-06-12 23:32:00,
2013-06-12 18:37:00,81.4,69.8,29.71,West,274,2.4,4.6,68,0.00,FEW,,0.17,135.8,WeatherDisplay:10.37,2013-06-12 23:37:00,
2013-06-12 18:42:00,81.1,70.0,29.72,SSE,158,1.4,4.0,69,0.00,FEW,,0.17,137.2,WeatherDisplay:10.37,2013-06-12 23:42:00,
2013-06-12 18:47:00,80.8,69.7,29.72,WNW,300,3.0,6.9,69,0.00,FEW,,0.17,133.0,WeatherDisplay:10.37,2013-06-12 23:47:00,
2013-06-12 18:53:00,80.5,69.0,29.72,WNW,286,3.5,11.5,68,0.00,FEW,,0.17,182.0,WeatherDisplay:10.37,2013-06-12 23:53:00,
2013-06-12 18:58:00,80.2,68.7,29.73,West,279,6.8,12.7,68,0.00,FEW,,0.17,127.4,WeatherDisplay:10.37,2013-06-12 23:58:00,
2013-06-12 19:03:00,79.6,68.1,29.73,WNW,283,2.9,14.0,68,0.00,FEW,,0.17,107.8,WeatherDisplay:10.37,2013-06-13 00:03:00,
2013-06-12 19:08:00,79.2,68.1,29.74,NNW,331,1.8,9.2,69,0.00,FEW,,0.17,75.6,WeatherDisplay:10.37,2013-06-13 00:08:00,
2013-06-12 19:14:00,78.8,67.3,29.74,West,279,4.3,20.7,68,0.00,FEW,,0.17,42.0,WeatherDisplay:10.37,2013-06-13 00:14:00,
2013-06-12 19:19:00,78.5,66.6,29.75,West,276,10.0,14.0,67,0.00,FEW,,0.17,32.2,WeatherDisplay:10.37,2013-06-13 00:19:00,
2013-06-12 19:24:00,78.2,66.8,29.75,West,276,4.8,12.7,68,0.00,FEW,,0.17,42.0,WeatherDisplay:10.37,2013-06-13 00:24:00,
2013-06-12 19:29:00,77.8,66.8,29.76,WNW,282,4.8,10.4,69,0.00,FEW,,0.17,35.0,WeatherDisplay:10.37,2013-06-13 00:29:00,
2013-06-12 19:35:00,77.2,65.8,29.76,WNW,296,4.1,18.4,68,0.00,FEW,,0.17,42.0,WeatherDisplay:10.37,2013-06-13 00:35:00,
2013-06-12 19:40:00,76.8,65.9,29.77,West,267,8.0,16.1,69,0.00,FEW,,0.17,51.8,WeatherDisplay:10.37,2013-06-13 00:40:00,
2013-06-12 19:45:00,76.4,66.3,29.78,WNW,285,8.9,13.8,71,0.00,FEW,,0.17,16.8,WeatherDisplay:10.37,2013-06-13 00:45:00,
2013-06-12 19:50:00,75.3,65.6,29.78,WNW,303,7.2,19.0,72,0.00,FEW,,0.17,68.6,WeatherDisplay:10.37,2013-06-13 00:50:00,
2013-06-12 19:56:00,74.3,65.5,29.78,WNW,290,10.7,16.1,74,0.00,FEW,,0.17,75.6,WeatherDisplay:10.37,2013-06-13 00:56:00,
2013-06-12 20:01:00,73.5,65.1,29.78,West,271,9.2,15.0,75,0.00,FEW,,0.17,39.2,WeatherDisplay:10.37,2013-06-13 01:01:00,
2013-06-12 20:06:00,72.6,64.6,29.80,WNW,284,8.9,18.4,76,0.00,FEW,,0.17,26.6,WeatherDisplay:10.37,2013-06-13 01:06:00,
2013-06-12 20:11:00,71.7,63.7,29.79,WSW,250,4.3,15.0,76,0.00,FEW,,0.17,32.2,WeatherDisplay:10.37,2013-06-13 01:11:00,
2013-06-12 20:17:00,71.0,63.1,29.79,WSW,250,10.0,13.0,76,0.00,FEW,,0.17,35.0,WeatherDisplay:10.37,2013-06-13 01:17:00,
2013-06-12 20:22:00,70.6,63.0,29.79,West,272,5.0,15.0,77,0.00,FEW,FEW,0.17,25.2,WeatherDisplay:10.37,2013-06-13 01:22:00,
2013-06-12 20:27:00,70.2,62.7,29.80,West,266,7.0,13.0,77,0.00,FEW,FEW,0.17,15.4,WeatherDisplay:10.37,2013-06-13 01:27:00,
2013-06-12 20:32:00,69.7,62.2,29.80,West,269,4.9,12.0,77,0.00,FEW,,0.17,12.6,WeatherDisplay:10.37,2013-06-13 01:32:00,
2013-06-12 20:37:00,69.3,61.8,29.80,WNW,283,4.0,15.0,77,0.00,FEW,,0.17,9.8,WeatherDisplay:10.37,2013-06-13 01:37:00,
2013-06-12 20:42:00,68.9,61.8,29.80,West,268,3.9,11.5,78,0.00,FEW,,0.17,7.0,WeatherDisplay:10.37,2013-06-13 01:42:00,
2013-06-12 20:48:00,68.4,61.6,29.80,WNW,284,3.9,4.6,79,0.00,FEW,,0.17,0.0,WeatherDisplay:10.37,2013-06-13 01:48:00,
2013-06-12 20:53:00,68.1,61.3,29.80,West,273,1.1,3.5,79,0.00,FEW,,0.17,0.0,WeatherDisplay:10.37,2013-06-13 01:53:00,
2013-06-12 20:58:00,67.8,61.4,29.80,SSW,211,0.0,2.3,80,0.00,FEW,,0.17,0.0,WeatherDisplay:10.37,2013-06-13 01:58:00,
2013-06-12 21:03:00,67.6,61.2,29.80,WSW,252,2.0,6.9,80,0.00,BKN,,0.17,0.0,WeatherDisplay:10.37,2013-06-13 02:03:00,
2013-06-12 21:09:00,67.3,61.3,29.80,West,277,1.2,3.5,81,0.00,BKN,,0.17,0.0,WeatherDisplay:10.37,2013-06-13 02:09:00,
2013-06-12 21:14:00,67.0,61.0,29.80,WSW,258,4.1,9.2,81,0.00,BKN,,0.17,0.0,WeatherDisplay:10.37,2013-06-13 02:14:00,
2013-06-12 21:19:00,66.7,60.7,29.80,West,277,5.6,19.0,81,0.00,BKN,,0.17,0.0,WeatherDisplay:10.37,2013-06-13 02:19:00,
2013-06-12 21:24:00,66.5,60.8,29.80,South,182,4.3,15.0,82,0.00,BKN,,0.17,0.0,WeatherDisplay:10.37,2013-06-13 02:24:00,
2013-06-12 21:30:00,66.5,60.8,29.81,NNW,331,4.3,16.1,82,0.00,BKN,,0.17,0.0,WeatherDisplay:10.37,2013-06-13 02:30:00,
2013-06-12 21:35:00,66.6,60.9,29.82,WSW,258,4.8,11.5,82,0.00,BKN,,0.17,0.0,WeatherDisplay:10.37,2013-06-13 02:35:00,
2013-06-12 21:40:00,66.5,60.8,29.82,WNW,296,6.1,11.5,82,0.00,BKN,,0.17,0.0,WeatherDisplay:10.37,2013-06-13 02:40:00,
2013-06-12 21:45:00,66.5,60.5,29.83,West,281,5.6,11.5,81,0.00,BKN,,0.17,0.0,WeatherDisplay:10.37,2013-06-13 02:45:00,
2013-06-12 21:51:00,66.5,60.5,29.83,WNW,287,3.0,8.0,81,0.00,BKN,,0.17,0.0,WeatherDisplay:10.37,2013-06-13 02:51:00,
2013-06-12 21:56:00,66.5,60.5,29.83,WNW,289,7.0,12.7,81,0.00,BKN,,0.17,0.0,WeatherDisplay:10.37,2013-06-13 02:56:00,
2013-06-12 22:01:00,66.5,60.5,29.83,West,278,5.8,19.6,81,0.00,OVC,,0.17,0.0,WeatherDisplay:10.37,2013-06-13 03:01:00,
2013-06-12 22:06:00,66.5,60.5,29.83,SSE,153,3.8,8.1,81,0.00,OVC,,0.17,0.0,WeatherDisplay:10.37,2013-06-13 03:06:00,
2013-06-12 22:12:00,66.5,60.5,29.84,NW,305,2.2,3.5,81,0.00,OVC,,0.17,0.0,WeatherDisplay:10.37,2013-06-13 03:12:00,
2013-06-12 22:17:00,66.5,60.5,29.84,West,262,5.0,20.0,81,0.00,OVC,OVC,0.17,0.0,WeatherDisplay:10.37,2013-06-13 03:17:00,
2013-06-12 22:22:00,66.4,60.4,29.84,NE,48,3.3,8.1,81,0.00,OVC,,0.17,0.0,WeatherDisplay:10.37,2013-06-13 03:22:00,
2013-06-12 22:27:00,66.4,60.4,29.84,WSW,250,6.7,18.0,81,0.00,OVC,,0.17,0.0,WeatherDisplay:10.37,2013-06-13 03:27:00,
2013-06-12 22:33:00,66.3,60.3,29.84,WSW,237,2.7,7.0,81,0.00,OVC,,0.17,0.0,WeatherDisplay:10.37,2013-06-13 03:33:00,
2013-06-12 22:38:00,66.3,59.9,29.84,WSW,254,7.5,16.1,80,0.00,OVC,,0.17,0.0,WeatherDisplay:10.37,2013-06-13 03:38:00,
2013-06-12 22:43:00,66.3,59.9,29.85,WNW,294,4.3,11.5,80,0.00,OVC,,0.17,0.0,WeatherDisplay:10.37,2013-06-13 03:43:00,
2013-06-12 22:48:00,66.3,59.9,29.85,West,268,6.2,9.2,80,0.00,OVC,,0.17,0.0,WeatherDisplay:10.37,2013-06-13 03:48:00,
2013-06-12 22:54:00,66.3,59.9,29.85,NW,307,10.4,12.7,80,0.00,OVC,,0.17,0.0,WeatherDisplay:10.37,2013-06-13 03:54:00,
2013-06-12 22:59:00,66.3,59.9,29.85,SSE,148,3.8,9.2,80,0.00,OVC,,0.17,0.0,WeatherDisplay:10.37,2013-06-13 03:59:00,
2013-06-12 23:01:00,66.3,59.6,29.85,SSW,200,6.9,10.4,79,0.00,OVC,,0.17,0.0,WeatherDisplay:10.37,2013-06-13 04:01:00,
2013-06-12 23:02:00,66.3,59.6,29.85,NW,304,3.7,9.2,79,0.00,OVC,,0.17,0.0,WeatherDisplay:10.37,2013-06-13 04:02:00,
2013-06-12 23:03:00,66.3,59.6,29.85,West,274,3.1,10.0,79,0.00,OVC,,0.17,0.0,WeatherDisplay:10.37,2013-06-13 04:03:00,
2013-06-12 23:09:00,66.3,59.2,29.86,SSE,150,2.7,11.5,78,0.00,OVC,,0.17,0.0,WeatherDisplay:10.37,2013-06-13 04:09:00,
2013-06-12 23:14:00,66.3,59.2,29.86,WSW,240,3.7,8.1,78,0.00,OVC,,0.17,0.0,WeatherDisplay:10.37,2013-06-13 04:14:00,
2013-06-12 23:19:00,66.3,59.2,29.86,NW,312,3.4,11.5,78,0.00,OVC,,0.17,0.0,WeatherDisplay:10.37,2013-06-13 04:19:00,
2013-06-12 23:24:00,66.3,58.9,29.87,NW,311,5.5,11.5,77,0.00,OVC,,0.17,0.0,WeatherDisplay:10.37,2013-06-13 04:24:00,
2013-06-12 23:30:00,66.4,59.0,29.86,SW,215,5.9,8.1,77,0.00,OVC,,0.17,0.0,WeatherDisplay:10.37,2013-06-13 04:30:00,
2013-06-12 23:35:00,66.4,59.0,29.86,North,9,4.9,8.1,77,0.00,OVC,,0.17,0.0,WeatherDisplay:10.37,2013-06-13 04:35:00,
2013-06-12 23:40:00,66.4,58.6,29.86,SSE,166,1.8,10.4,76,0.00,OVC,,0.17,0.0,WeatherDisplay:10.37,2013-06-13 04:40:00,
2013-06-12 23:45:00,66.5,59.1,29.87,West,281,2.6,6.0,77,0.00,OVC,,0.17,0.0,WeatherDisplay:10.37,2013-06-13 04:45:00,
2013-06-12 23:51:00,66.5,58.7,29.87,NNW,338,3.9,11.0,76,0.00,OVC,,0.17,0.0,WeatherDisplay:10.37,2013-06-13 04:51:00,
2013-06-12 23:56:00,66.5,58.7,29.87,NW,311,1.8,5.0,76,0.00,OVC,,0.17,0.0,WeatherDisplay:10.37,2013-06-13 04:56:00,